GFSCGP_500_spd_273.txt.gz
Wind_Speed
43 42 35 37 40 40 39 37 35 33 36 33 32 28 28 30 32 36 40 43 44 45 49 49 46 48 47 42 43 38 37 34 35 42 33 35 35 29 28 18 27 27 25 27
46 44 41 44 43 42 41 40 39 38 39 37 36 34 30 31 33 34 38 39 39 39 41 48 48 47 48 47 43 43 41 37 34 34 32 36 37 34 23 19 21 27 30 31
46 47 46 44 45 46 45 42 40 40 41 42 38 37 35 34 34 35 37 40 38 36 35 38 42 48 48 50 50 48 45 43 44 45 39 38 38 37 35 34 32 33 37 38
48 47 45 46 46 47 47 44 42 42 41 42 42 40 38 38 38 36 37 39 39 38 36 36 37 39 45 50 53 52 50 51 45 47 47 47 49 46 43 45 45 47 42 44
41 44 48 49 48 48 48 45 45 44 42 42 43 42 40 37 39 39 39 40 40 40 40 38 38 38 41 43 46 52 55 55 53 54 54 52 52 48 51 51 54 52 50 47
41 45 47 49 48 47 49 49 47 46 45 48 46 43 44 40 37 40 41 42 41 40 40 42 42 40 42 44 45 47 50 52 55 55 53 55 56 57 54 52 53 54 51 48
36 40 42 43 45 44 45 45 45 45 46 48 46 45 48 44 43 42 43 44 44 43 42 40 43 44 43 45 47 47 48 51 53 52 52 50 52 53 51 49 50 53 52 51
35 38 39 40 40 38 37 39 39 41 42 44 44 46 47 46 46 45 46 47 48 47 45 42 41 41 41 44 46 48 48 48 49 51 52 55 57 56 52 50 48 51 52 52
35 38 40 40 41 41 42 41 42 42 44 45 47 47 48 48 49 48 48 48 49 49 49 44 43 44 43 40 42 48 48 51 52 54 54 54 54 54 58 56 53 53 53 56
41 41 41 42 41 42 41 42 40 40 40 39 41 39 42 41 41 41 41 42 46 49 50 50 46 45 46 42 41 44 49 51 53 56 57 57 55 53 52 49 47 52 56 61
46 47 46 45 44 44 45 45 44 43 44 42 39 43 40 41 43 44 44 42 41 43 47 50 52 51 49 47 45 45 46 50 55 56 56 56 57 55 52 52 51 55 60 65
44 48 47 47 54 53 52 50 49 49 47 47 48 50 48 48 48 49 48 48 46 43 39 44 42 41 50 54 51 48 47 47 48 50 54 55 58 56 54 55 56 60 58 60
34 38 39 42 44 47 46 41 44 48 50 48 50 51 53 52 53 53 54 52 49 49 44 41 48 47 43 44 46 52 49 49 48 49 49 52 54 54 53 53 55 58 56 47
29 30 32 33 35 37 38 39 41 43 44 45 46 48 49 50 52 53 53 52 52 52 53 59 59 54 48 50 48 47 50 50 51 49 52 53 53 59 57 55 52 54 50 47
24 26 29 31 32 33 34 35 35 36 36 36 36 37 38 40 41 44 47 48 50 51 50 52 57 61 62 54 54 55 55 52 50 54 55 51 54 55 57 54 55 53 49 45
25 25 26 25 24 24 23 26 25 19 16 19 23 23 28 30 32 35 38 42 47 51 54 53 53 56 62 72 69 58 57 54 60 58 59 63 62 57 55 56 58 60 57 53
24 27 27 25 25 19 17 17 15 15 12 11 11 10 10 14 14 15 17 18 20 28 36 43 50 56 58 62 69 74 67 59 58 60 66 63 65 64 59 59 57 54 52 49
20 22 19 14 13 10 12 14 15 14 12 12 15 16 19 20 21 23 25 29 28 28 27 28 29 31 40 51 61 63 65 69 73 70 66 66 68 67 66 68 67 62 59 56
14 10 9 10 11 11 11 12 14 15 15 17 18 21 24 25 27 28 31 34 34 34 34 36 37 36 34 33 39 48 55 60 62 69 73 74 76 75 70 68 71 70 67 60
11 10 11 12 11 9 12 15 16 17 15 21 22 25 26 26 29 28 34 36 38 40 40 38 37 40 42 42 41 35 37 41 42 47 59 65 70 76 77 74 70 71 68 63
11 10 9 11 11 10 16 17 19 20 20 20 20 23 26 29 34 34 34 36 39 41 42 43 42 43 43 43 44 44 41 38 39 38 38 44 49 56 62 67 71 70 68 65
11 10 10 12 13 12 16 17 19 19 17 17 20 25 29 31 32 34 35 35 35 37 37 40 44 44 45 46 45 44 44 44 43 41 38 36 35 37 44 51 57 60 62 63
10 11 10 12 13 15 15 19 15 14 19 23 27 30 35 37 36 35 34 35 35 35 36 35 34 35 36 38 40 44 44 44 43 41 40 39 37 35 35 37 45 49 51 50
11 11 10 12 16 16 17 15 15 19 24 29 33 36 39 39 39 36 35 35 33 31 30 30 32 33 35 38 39 39 40 42 44 43 42 41 40 38 37 35 33 43 46 48
12 11 11 14 14 14 17 19 21 24 28 33 36 39 39 38 35 35 32 30 29 27 27 28 29 30 32 34 36 40 43 43 44 44 43 41 41 41 39 38 35 34 44 47
10 11 10 12 13 18 21 22 25 27 32 36 36 34 35 34 32 31 30 27 22 25 25 30 36 37 30 26 27 30 33 38 42 44 45 43 39 39 39 40 37 39 35 42

GFSCGP_500_spd_276.txt.gz
Wind_Speed
43 42 39 39 42 43 41 37 37 37 39 36 35 31 29 28 28 30 33 33 33 33 34 38 42 45 47 47 47 46 47 44 36 33 32 38 36 43 47 37 29 31 31 29
45 42 39 44 45 43 43 42 39 39 40 39 40 36 34 33 32 31 31 32 33 33 34 36 40 43 47 48 47 46 44 39 38 35 35 38 39 40 44 31 15 17 26 24
42 45 44 45 45 43 43 43 41 38 41 40 41 37 36 39 36 35 32 32 32 33 33 34 35 37 39 45 48 48 46 43 41 40 39 38 40 34 32 28 29 24 28 28
41 43 45 44 46 45 44 44 42 41 39 36 43 32 42 41 40 39 36 34 34 34 35 33 34 37 39 41 44 46 46 45 45 43 40 42 45 42 43 43 40 39 40 38
36 39 42 45 44 47 44 46 44 42 40 39 45 41 24 44 42 42 41 38 37 37 37 36 33 35 38 39 40 42 44 47 48 48 47 43 44 44 46 47 46 47 45 46
32 43 42 45 47 45 46 45 45 44 41 45 41 43 26 35 48 42 44 43 41 40 40 38 37 37 38 40 40 40 42 43 45 46 48 50 50 50 51 53 50 50 50 52
31 37 38 39 41 42 44 43 41 39 41 46 29 37 33 45 50 43 44 45 45 45 42 41 41 39 38 40 42 44 44 44 45 45 46 48 49 50 51 52 52 53 51 54
25 34 36 38 38 38 38 35 28 25 27 25 36 38 38 48 47 46 45 45 46 46 45 43 42 42 40 40 43 45 47 48 48 48 49 48 51 50 48 49 51 51 50 51
31 36 39 35 36 35 37 34 37 37 35 36 26 36 41 43 44 45 45 46 45 46 46 46 46 44 43 43 42 43 48 52 53 52 53 53 53 52 52 51 50 53 54 54
34 36 33 34 34 36 39 37 37 41 41 38 31 34 31 46 45 45 45 45 47 48 50 49 48 46 45 47 46 46 47 49 54 56 56 56 57 55 56 56 57 57 55 54
38 39 42 41 41 42 38 39 40 42 43 40 36 27 34 39 37 37 38 37 40 43 46 45 46 47 49 50 50 49 49 50 52 56 59 59 59 61 61 60 59 59 60 53
38 42 42 45 48 43 45 44 47 46 42 43 44 40 43 43 43 43 41 42 43 44 45 46 48 47 47 49 50 55 55 52 53 55 58 60 63 63 63 62 62 60 58 58
24 28 29 33 36 42 47 48 42 42 47 47 50 40 43 50 51 49 47 47 48 49 49 49 49 51 51 49 48 49 52 59 58 54 57 59 62 63 65 65 64 62 60 59
25 25 26 29 34 35 32 35 38 40 41 42 43 47 52 52 49 47 49 49 50 52 53 54 54 53 53 54 52 51 51 49 51 56 55 57 59 61 63 63 62 59 57 56
21 20 23 26 29 32 33 33 34 35 37 39 40 47 51 53 51 52 52 52 51 52 53 55 56 56 54 55 57 54 61 57 47 54 55 56 57 59 55 56 57 57 57 58
23 22 24 26 28 27 26 26 31 33 33 34 36 37 37 35 36 38 40 41 43 45 47 48 50 51 52 53 56 59 62 65 64 60 59 59 57 57 58 55 54 57 54 55
22 23 26 25 28 24 22 24 23 21 23 23 21 22 19 18 16 18 19 19 20 21 23 25 28 31 35 42 52 56 59 61 65 70 66 60 67 64 59 61 61 57 56 54
21 22 25 21 21 17 17 16 16 18 18 17 17 17 17 19 20 23 25 26 29 31 32 33 34 35 36 35 35 35 43 54 61 64 69 75 69 63 68 68 63 65 64 62
21 21 20 13 10 9 10 12 14 17 17 17 20 21 21 22 24 25 27 27 31 32 33 35 36 37 37 39 42 41 37 37 42 51 56 60 61 69 71 65 65 66 66 62
18 16 14 13 11 12 14 14 15 14 15 19 23 23 23 23 21 22 29 27 30 33 34 35 35 35 37 39 42 42 43 43 42 40 43 50 53 59 63 69 71 68 68 66
13 14 13 13 12 12 14 14 15 16 19 20 22 23 19 20 24 24 29 33 36 37 36 37 37 37 38 39 41 42 45 46 46 46 44 41 44 47 53 60 65 72 75 72
14 13 13 14 12 14 15 16 17 17 19 20 19 20 21 24 29 33 35 34 36 39 41 42 41 40 40 41 42 43 45 45 48 49 48 46 44 42 41 44 50 57 64 67
12 13 12 13 12 12 13 16 17 17 19 18 20 24 28 30 33 35 36 39 42 43 43 42 40 39 40 40 40 39 38 38 39 47 50 49 48 45 41 43 40 45 50 56
15 14 14 16 15 13 15 16 14 15 18 21 24 27 31 35 34 36 37 38 35 35 37 36 34 32 32 33 36 38 39 40 39 38 39 45 49 46 45 45 42 41 41 43
15 13 14 14 15 13 13 13 15 17 21 25 28 32 34 35 36 37 33 35 34 31 29 27 26 27 29 32 37 41 43 42 40 40 41 40 42 45 46 47 46 43 40 38
14 13 12 13 11 13 15 17 20 22 26 29 31 33 34 35 35 32 34 32 30 26 24 25 25 27 26 25 25 26 28 29 32 33 36 38 40 42 43 47 48 44 41 39

GFSCGP_500_spd_279.txt.gz
Wind_Speed
40 42 44 39 39 39 36 41 35 31 37 41 33 35 33 33 31 27 26 29 34 38 29 24 33 36 39 41 42 43 42 43 43 41 41 41 35 31 37 39 39 50 41 46
42 43 38 39 41 45 42 45 40 40 41 45 37 38 37 34 36 32 31 34 29 30 33 29 33 37 40 41 43 43 44 45 45 45 44 38 37 33 34 36 38 38 31 23
36 36 39 42 44 46 42 42 41 42 41 46 40 40 41 36 40 40 34 36 32 33 33 32 34 36 38 40 44 45 45 44 43 43 42 39 41 40 38 34 39 34 25 21
35 33 38 41 43 44 45 42 42 42 43 43 36 39 37 36 46 43 42 39 38 34 36 35 35 35 36 38 41 45 45 45 45 45 44 41 42 42 40 37 46 41 39 35
31 31 34 34 40 39 41 38 34 42 41 40 34 40 23 31 42 50 44 44 41 39 38 38 38 35 36 38 39 41 44 47 48 49 48 46 44 45 44 44 44 46 46 46
30 23 32 29 32 36 38 39 39 35 35 37 40 29 23 27 40 48 53 43 42 43 41 41 41 38 37 38 38 39 42 44 46 48 49 49 50 48 49 47 46 46 45 45
26 27 36 40 37 36 39 38 33 30 30 38 28 30 27 36 44 51 53 43 42 43 45 45 42 41 40 41 41 41 41 41 44 45 46 49 51 52 52 52 49 49 50 49
23 26 30 41 34 30 24 25 28 29 29 27 26 31 40 45 46 50 51 52 45 44 46 46 44 43 43 42 43 43 43 43 44 45 46 47 46 48 50 51 52 51 51 51
25 31 40 43 32 28 29 28 24 38 39 26 21 28 39 42 45 50 56 57 51 46 46 47 48 44 45 45 45 46 47 47 48 48 48 50 50 49 49 50 48 50 48 49
31 36 35 41 39 35 33 28 31 33 39 39 35 26 36 42 43 51 54 52 48 43 45 47 49 49 49 49 50 48 48 49 50 51 53 54 54 54 54 54 53 54 53 53
34 37 35 41 40 31 29 33 35 33 36 30 35 44 43 31 26 27 38 37 41 42 46 46 47 48 49 52 52 51 50 52 53 54 55 56 57 60 59 59 58 57 56 56
33 37 38 37 39 38 37 36 28 34 32 35 35 33 39 42 44 50 34 26 36 36 38 42 43 46 48 50 52 54 55 58 58 57 59 60 61 62 62 64 63 61 60 59
26 25 28 27 31 40 41 43 45 47 42 46 42 37 39 41 47 48 50 50 48 46 46 47 47 49 50 51 51 52 53 55 55 59 62 62 63 65 65 65 66 67 66 64
23 23 24 24 24 29 32 34 33 38 42 48 48 41 44 47 44 46 50 51 49 48 48 49 48 51 52 53 53 54 55 57 58 58 60 65 65 66 67 68 67 68 69 69
25 23 26 29 31 37 38 38 38 35 34 35 32 34 40 46 46 54 55 53 54 54 55 57 56 56 57 57 56 57 57 57 58 59 61 62 62 64 68 69 68 68 67 68
25 21 23 26 28 32 33 34 33 35 38 38 38 42 43 47 52 50 50 53 53 53 53 52 52 52 52 53 54 56 58 59 58 59 64 63 63 60 62 64 69 69 64 66
24 22 23 24 25 29 27 25 33 34 33 31 34 32 42 44 44 38 34 31 30 30 28 28 29 29 30 31 34 37 42 50 55 58 61 69 70 69 66 66 67 68 64 63
23 23 23 26 24 23 22 28 26 27 26 25 24 26 23 24 23 22 24 25 26 29 31 33 35 36 36 37 38 38 38 39 39 39 45 56 66 71 75 73 71 71 68 61
20 22 23 22 21 17 14 18 13 14 17 18 19 23 23 22 22 27 27 29 29 32 33 34 35 36 37 38 40 41 41 41 41 43 44 44 43 52 65 70 75 77 71 69
19 19 22 21 16 13 14 17 14 13 12 18 18 22 24 25 26 30 31 28 29 29 31 31 33 33 34 35 35 37 39 41 44 45 47 47 47 46 44 54 62 70 87 75
16 18 17 17 17 16 20 14 15 14 17 18 21 25 28 29 30 29 28 30 32 33 34 36 38 39 41 43 44 44 43 42 43 46 48 48 50 50 48 46 44 45 52 63
18 15 12 15 17 15 16 16 17 17 19 22 24 25 27 27 26 28 30 33 36 39 41 41 42 44 46 47 49 49 48 47 46 45 47 50 53 53 51 49 46 44 42 44
13 13 13 13 16 16 17 17 17 19 22 23 24 25 24 25 27 31 35 39 40 40 40 42 41 39 39 39 39 42 41 40 41 41 41 44 47 47 50 51 50 46 44 43
17 21 17 19 21 20 18 18 19 20 21 23 23 23 27 29 32 35 37 38 40 41 39 39 38 37 35 33 33 33 34 35 37 40 42 43 44 45 43 45 49 49 49 47
23 18 22 20 22 20 18 18 16 17 20 23 25 28 32 33 34 36 36 38 38 35 36 35 35 32 30 30 31 32 34 34 35 35 38 42 44 44 42 41 42 47 49 48
20 21 20 19 19 17 18 14 18 20 23 26 28 29 33 35 35 35 36 35 35 34 33 32 31 30 29 29 31 31 30 28 28 30 31 29 29 35 37 39 40 43 45 43

GFSCGP_500_spd_285.txt.gz
Wind_Speed
29 33 33 33 36 37 37 38 36 34 27 19 25 31 32 24 29 30 31 23 28 33 32 34 30 22 18 22 23 33 38 31 29 30 30 31 28 28 31 32 31 28 29 31
22 27 26 30 31 34 37 38 37 31 27 21 22 30 38 31 31 31 34 31 33 36 36 38 34 27 22 28 30 30 33 35 33 34 35 35 36 36 36 36 36 34 33 35
18 19 20 25 28 31 33 36 37 36 40 35 31 29 31 40 27 33 32 36 36 39 41 40 38 29 27 30 31 33 32 33 35 35 34 35 37 38 37 39 39 37 35 37
20 21 20 21 25 26 33 30 33 34 39 47 39 44 38 39 31 30 38 39 43 45 43 44 41 36 32 30 30 32 34 34 35 36 37 37 37 36 36 39 38 37 36 36
23 26 26 29 24 26 34 30 29 34 30 34 47 48 50 30 18 19 30 35 43 44 46 49 47 41 36 27 33 34 35 36 38 39 39 41 42 40 41 40 40 40 35 37
32 30 27 30 30 29 29 32 34 36 39 40 42 38 42 33 24 15 36 43 43 43 45 50 49 46 41 32 38 39 35 36 39 39 41 42 43 44 44 44 44 42 41 40
35 37 34 36 39 31 33 37 40 44 33 45 39 30 30 36 35 30 33 46 51 53 52 54 50 48 39 38 39 42 42 39 40 40 41 43 45 45 45 46 47 47 45 43
41 40 31 30 42 40 35 41 34 47 43 41 37 32 39 34 33 38 40 47 53 56 62 58 56 50 39 39 40 42 42 42 44 44 44 44 45 45 45 46 47 48 49 46
44 44 36 30 36 43 42 46 43 39 41 45 40 43 39 42 30 48 53 53 53 53 58 54 56 50 49 46 44 40 39 40 45 48 48 47 47 46 46 46 47 48 49 48
43 49 33 27 38 41 44 45 41 29 37 38 39 45 41 34 41 36 44 53 56 56 56 45 53 58 60 51 46 46 46 46 46 48 50 50 50 49 48 48 49 50 50 49
44 41 31 23 25 30 29 30 30 38 31 34 37 39 50 40 40 47 50 52 53 68 68 48 46 60 58 57 54 53 55 51 51 53 52 52 52 52 52 52 51 52 51 52
37 36 31 22 18 32 35 21 21 32 30 39 28 34 39 41 44 43 59 36 39 31 26 36 48 51 63 57 59 55 56 58 53 50 54 54 54 54 54 55 54 53 52 52
31 31 29 23 22 28 42 39 37 37 27 27 28 33 38 41 47 52 50 52 56 46 51 33 32 31 35 33 34 33 37 44 44 47 52 53 54 53 54 56 57 57 55 55
27 26 28 26 23 24 28 29 39 39 37 29 28 39 38 43 41 48 45 43 39 43 46 46 40 45 48 48 45 45 42 42 45 46 46 46 48 52 55 57 59 61 61 60
30 24 25 25 25 25 27 28 19 21 29 34 37 35 31 42 46 47 53 59 62 56 52 58 57 51 48 48 53 54 54 52 52 52 52 54 54 53 57 56 54 56 58 59
32 27 25 22 24 26 29 29 28 24 28 27 24 29 30 38 41 46 50 52 56 59 57 52 47 42 45 46 49 51 53 53 51 53 53 54 57 60 62 65 65 62 62 62
29 27 25 20 23 25 25 25 24 30 32 33 30 35 36 39 42 43 43 43 44 47 51 52 51 52 41 30 33 34 35 34 36 38 42 46 47 50 54 57 60 62 62 67
27 26 24 22 22 23 18 21 25 25 27 29 29 24 28 35 40 43 45 46 47 45 46 47 43 34 32 32 34 32 35 37 37 39 41 43 44 44 45 46 49 51 49 51
21 22 20 19 19 19 17 24 28 25 23 26 28 31 37 41 42 41 36 33 35 34 27 26 29 32 33 35 36 36 37 38 38 38 39 40 40 41 43 44 45 46 45 45
24 19 17 17 19 19 21 24 22 23 27 26 26 24 24 26 30 29 24 24 28 28 29 32 35 37 39 38 36 34 35 37 38 39 41 43 45 46 46 46 44 42 42 42
23 22 18 19 22 19 24 25 25 22 20 21 26 25 20 21 20 23 25 25 28 32 36 38 40 39 40 38 38 39 40 42 44 46 49 51 51 52 53 54 55 53 50 47
21 22 21 21 21 21 22 28 28 25 23 24 25 25 23 24 25 27 29 33 35 37 39 39 40 39 38 41 43 45 47 48 49 50 51 53 52 52 52 52 54 57 58 55
24 19 20 21 16 15 14 18 21 22 23 24 23 22 26 29 30 32 35 38 37 37 37 37 40 41 44 47 49 50 50 51 52 50 49 47 45 43 43 41 40 41 43 47
25 24 20 21 25 22 21 19 20 16 24 20 24 27 28 29 31 33 33 35 38 39 42 43 45 46 47 48 50 50 50 48 46 43 43 41 37 35 35 35 36 37 38 39
26 25 26 28 25 28 27 25 30 26 27 28 28 29 30 32 33 34 36 39 41 42 43 44 44 44 44 44 43 42 43 43 40 39 37 36 35 34 33 34 35 36 37 39
28 29 27 27 26 34 29 30 34 31 28 27 28 29 31 34 35 37 38 38 40 40 41 41 38 37 36 36 36 39 40 40 38 37 36 35 34 33 33 34 35 36 35 35

GFSCGP_500_spd_291.txt.gz
Wind_Speed
6 11 16 20 24 28 31 34 36 38 35 40 39 41 38 37 38 39 40 39 36 32 30 29 31 29 26 23 20 18 19 17 21 26 28 28 28 32 31 27 28 34 26 23
9 10 11 12 13 16 21 28 31 34 34 41 41 42 39 39 41 41 40 44 42 38 35 33 34 33 29 25 22 21 17 17 21 26 29 32 33 35 33 31 32 30 28 31
14 13 14 14 16 19 21 22 24 27 31 35 41 44 38 34 43 45 46 44 43 41 41 38 35 33 30 28 26 25 19 20 25 28 28 33 35 38 35 39 39 34 38 38
17 18 18 20 20 23 21 24 26 28 31 29 38 42 41 38 40 42 40 43 47 47 43 41 39 34 32 31 29 28 27 25 29 29 30 32 36 37 36 38 35 39 40 43
19 21 23 24 24 26 27 27 29 29 32 34 33 41 44 43 36 33 37 41 46 48 48 46 42 40 37 34 34 33 32 30 31 33 34 35 35 36 39 39 40 40 39 40
18 24 27 27 28 30 32 33 33 35 38 41 41 38 40 45 47 39 39 43 50 51 48 48 47 43 43 44 40 38 36 34 32 35 38 37 37 36 37 38 41 38 38 39
21 23 28 30 32 33 35 37 39 42 43 46 45 46 44 43 47 51 46 41 50 55 55 51 51 50 49 45 45 42 38 39 39 40 40 40 41 42 41 41 42 40 39 39
23 22 28 32 34 36 36 38 41 47 47 45 45 49 50 47 43 47 54 55 50 52 57 55 54 55 54 52 48 43 41 40 42 42 39 42 43 48 48 46 46 46 45 43
30 26 28 31 34 38 40 42 44 45 47 47 46 40 45 49 44 43 44 48 57 56 57 60 59 56 56 57 56 51 47 46 43 43 42 41 42 44 49 49 49 50 49 48
31 30 30 32 34 38 41 44 44 45 45 42 39 38 39 46 45 44 46 44 48 52 58 62 65 61 52 58 55 55 54 53 53 51 53 51 47 43 48 51 52 52 51 51
32 33 33 36 37 39 41 43 44 42 40 39 35 30 32 34 42 36 44 42 43 47 57 62 67 65 58 59 55 53 58 58 59 58 58 56 58 53 51 50 50 49 50 51
31 34 35 36 38 40 41 39 40 41 38 36 36 34 36 27 41 18 33 46 44 42 50 70 64 54 67 63 52 67 64 61 63 58 60 60 64 62 59 58 57 53 51 53
33 33 34 35 37 39 38 40 37 38 36 35 38 35 32 39 32 45 34 46 40 51 57 59 42 41 34 46 26 26 32 29 33 60 72 66 69 57 55 53 54 50 48 52
34 33 33 34 36 38 35 32 32 36 34 31 30 31 24 29 36 17 25 46 63 59 47 35 43 36 30 49 48 35 31 28 32 37 34 33 34 30 30 33 37 38 37 37
35 34 33 31 32 36 36 31 31 35 31 33 25 32 19 19 22 29 37 30 37 33 32 28 27 28 28 31 31 38 30 24 31 37 41 34 33 40 43 45 46 47 50 50
35 34 33 30 31 33 34 29 34 28 30 29 27 29 28 27 28 23 23 30 30 37 34 27 20 21 24 27 27 24 25 27 29 30 31 34 38 39 40 43 48 50 50 51
33 32 32 30 31 29 29 31 30 27 28 26 24 26 25 20 23 27 24 27 31 32 27 23 22 24 24 24 26 30 26 26 29 32 33 34 34 36 38 42 46 50 51 54
29 30 30 30 29 28 27 27 27 26 23 23 21 21 23 21 21 23 25 23 25 30 30 26 27 29 28 22 20 22 22 23 26 29 31 34 35 37 38 41 43 46 47 50
29 30 29 29 28 26 27 26 26 26 23 21 20 23 23 24 24 22 21 23 20 26 26 25 29 33 33 25 19 21 24 27 31 33 35 36 37 38 40 42 43 45 46 47
29 28 28 27 29 26 22 26 28 27 25 21 21 20 23 25 27 24 21 20 23 26 27 28 34 32 32 30 28 29 31 33 35 37 38 39 41 42 43 45 45 45 46 46
28 28 28 25 28 26 21 24 27 26 21 23 20 21 23 21 22 23 23 27 30 28 28 29 29 30 32 34 36 36 36 37 37 37 37 40 42 44 45 46 48 48 49 49
29 30 28 28 28 28 24 23 22 24 19 21 24 24 26 26 27 29 28 28 28 29 32 33 33 34 36 38 41 43 44 43 41 41 41 42 44 45 47 49 51 52 53 54
30 31 30 30 29 30 26 24 24 26 23 20 17 19 22 26 26 25 26 29 30 32 33 34 35 36 37 40 42 43 43 44 45 45 47 48 50 51 51 51 52 53 53 52
30 33 33 32 29 30 29 27 25 26 27 25 25 25 26 28 27 28 29 32 35 35 36 37 38 38 39 42 43 44 44 46 48 49 51 51 50 49 47 46 45 46 47 47
30 34 35 32 29 30 29 29 28 29 32 30 29 30 34 35 33 35 37 37 36 37 39 40 41 42 43 43 43 45 47 47 48 49 49 48 46 46 45 44 44 44 45 46
36 35 36 33 30 32 30 30 27 26 25 26 28 28 33 35 36 36 37 38 37 37 38 39 41 42 42 43 45 45 47 48 48 47 46 45 45 45 45 42 41 43 43 43